�N����,����,�~����,�C��,���x,�C��,����,���ϕ���,�ő�u�ԕ���,�ő厞����,���˗�,�I�_���x,�n�����x,�ő啗���N��,DTYPE
"16/07/24","00:10",0.0,21.5,89.2,1007.8,298.0,0.7,1.1,297.7,0.00,19.7,25.7,"00:06:32",1
"16/07/24","00:20",0.0,21.4,89.7,1008.1,296.9,0.7,0.9,273.7,0.00,19.7,25.6,"00:13:28",1
"16/07/24","00:30",0.0,21.4,90.1,1007.6,306.5,1.0,1.4,319.3,0.00,19.7,25.6,"00:24:24",1
"16/07/24","00:40",0.0,21.2,90.2,1008.3,305.2,0.7,1.0,319.8,0.00,19.6,25.7,"00:30:48",1
"16/07/24","00:50",0.0,21.1,90.7,1007.8,304.9,0.8,1.2,330.8,0.00,19.6,25.5,"00:47:04",1
"16/07/24","01:00",0.0,21.0,91.0,1008.1,316.2,0.8,1.1,321.6,0.00,19.5,25.4,"00:53:44",1
"16/07/24","01:10",0.0,21.2,91.3,1008.3,326.6,0.7,1.4,324.5,0.00,19.8,25.3,"01:06:08",1
"16/07/24","01:20",0.0,21.3,91.3,1008.3,331.8,1.0,1.8,331.4,0.00,19.9,25.3,"01:16:56",1
"16/07/24","01:30",0.0,21.3,90.9,1008.8,340.8,1.1,1.6,331.7,0.00,19.8,25.3,"01:24:56",1
"16/07/24","01:40",0.0,21.3,90.6,1008.6,328.8,1.2,1.7,327.4,0.00,19.7,25.2,"01:33:20",1
"16/07/24","01:50",0.0,21.2,90.6,1008.6,295.0,0.8,1.1,316.3,0.00,19.6,25.3,"01:42:40",1
"16/07/24","02:00",0.0,21.0,91.0,1008.8,320.2,0.8,1.4,321.8,0.00,19.5,25.1,"01:57:28",1
"16/07/24","02:10",0.0,20.9,91.5,1008.6,299.6,0.8,1.2,326.1,0.00,19.5,25.0,"02:05:28",1
"16/07/24","02:20",0.0,20.8,91.8,1008.8,314.3,1.0,1.1,320.6,0.00,19.5,25.1,"02:12:24",1
"16/07/24","02:30",0.0,20.7,92.2,1009.3,316.5,0.8,1.3,332.7,0.00,19.4,24.9,"02:29:44",1
"16/07/24","02:40",0.0,20.7,92.4,1009.0,308.4,0.8,1.3,339.2,0.00,19.5,24.9,"02:30:32",1
"16/07/24","02:50",0.0,20.8,92.4,1009.0,317.4,1.1,1.7,334.6,0.00,19.6,24.9,"02:48:32",1
"16/07/24","03:00",0.0,20.8,92.5,1008.8,292.2,0.6,1.0,278.4,0.00,19.6,24.6,"02:57:36",1
"16/07/24","03:10",0.0,20.8,92.5,1008.8,307.9,0.7,1.2,316.6,0.00,19.6,24.9,"03:04:48",1
"16/07/24","03:20",0.0,20.7,92.2,1008.6,300.0,0.7,1.0,307.3,0.00,19.4,25.0,"03:18:56",1
"16/07/24","03:30",0.0,20.7,92.0,1008.8,299.5,0.8,1.2,311.7,0.00,19.4,24.7,"03:21:28",1
"16/07/24","03:40",0.0,20.6,91.8,1009.0,304.7,0.7,1.3,326.6,0.00,19.3,24.7,"03:31:20",1
"16/07/24","03:50",0.0,20.5,91.8,1008.6,295.7,0.7,1.0,316.0,0.00,19.2,24.5,"03:44:32",1
"16/07/24","04:00",0.0,20.5,92.2,1008.6,327.1,1.1,1.3,328.5,0.00,19.2,24.5,"03:53:12",1
"16/07/24","04:10",0.0,20.7,92.2,1008.8,327.2,1.2,1.4,337.8,0.00,19.4,24.7,"04:03:52",1
"16/07/24","04:20",0.0,20.8,92.0,1009.3,299.3,0.6,1.3,320.4,0.00,19.5,24.5,"04:13:28",1
"16/07/24","04:30",0.0,20.8,91.8,1009.0,309.1,1.0,1.3,322.1,0.00,19.5,24.5,"04:22:00",1
"16/07/24","04:40",0.0,20.9,91.8,1009.0,312.7,1.0,1.2,314.6,0.00,19.6,24.6,"04:35:52",1
"16/07/24","04:50",0.0,21.0,91.9,1009.3,304.2,0.8,1.3,314.1,0.00,19.7,24.6,"04:40:56",1
"16/07/24","05:00",0.0,21.2,91.9,1008.8,313.2,1.0,1.3,320.8,0.00,19.9,24.3,"04:50:02",1
"16/07/24","05:10",0.0,21.3,91.6,1009.0,316.2,1.1,1.9,333.0,0.00,19.9,24.4,"05:05:20",1
"16/07/24","05:20",0.0,21.3,91.2,1009.3,300.6,0.6,1.2,314.7,0.00,19.8,24.4,"05:19:52",1
"16/07/24","05:30",0.0,21.4,91.3,1008.8,298.3,0.7,1.1,309.6,0.00,20.0,24.4,"05:20:08",1
"16/07/24","05:40",0.0,21.4,90.7,1009.0,309.3,1.1,1.4,326.2,0.00,19.9,24.3,"05:30:40",1
"16/07/24","05:50",0.0,21.6,90.4,1009.0,301.0,0.8,1.1,309.6,0.00,20.0,24.4,"05:40:24",1
"16/07/24","06:00",0.0,22.0,90.4,1009.0,290.1,0.7,1.0,302.3,0.01,20.4,24.4,"05:50:24",1
"16/07/24","06:10",0.0,22.4,88.5,1008.8,301.9,0.7,1.2,333.1,0.03,20.4,24.6,"06:03:20",1
"16/07/24","06:20",0.0,23.0,87.6,1008.8,313.9,0.8,1.3,335.5,0.02,20.9,24.7,"06:10:16",1
"16/07/24","06:30",0.0,23.2,85.8,1009.0,282.4,0.5,0.6,273.0,0.02,20.7,24.4,"06:22:24",1
"16/07/24","06:40",0.0,23.5,85.3,1009.0,298.0,0.5,0.9,301.9,0.03,20.9,24.5,"06:38:32",1
"16/07/24","06:50",0.0,23.8,83.0,1008.8,306.4,0.3,1.3,42.1,0.04,20.8,24.6,"06:46:32",1
"16/07/24","07:00",0.0,24.1,81.4,1008.8,356.1,0.7,1.6,62.6,0.05,20.8,24.5,"06:58:48",1
"16/07/24","07:10",0.0,24.5,78.9,1008.8,353.3,0.6,1.9,2.6,0.07,20.6,24.8,"07:07:04",1
"16/07/24","07:20",0.0,24.8,77.7,1009.0,338.6,0.7,2.2,341.4,0.07,20.7,25.0,"07:18:08",1
"16/07/24","07:30",0.0,24.9,76.3,1008.6,282.7,0.5,1.2,355.4,0.09,20.5,25.0,"07:25:36",1
"16/07/24","07:40",0.0,25.7,74.8,1008.6,332.9,0.7,2.0,345.3,0.16,20.9,25.1,"07:39:28",1
"16/07/24","07:50",0.0,25.7,73.3,1008.6,75.7,0.6,1.4,36.4,0.13,20.6,25.1,"07:44:56",1
"16/07/24","08:00",0.0,26.1,71.9,1008.3,61.7,0.6,1.7,39.0,0.17,20.7,25.3,"07:50:32",1
"16/07/24","08:10",0.0,25.8,70.9,1008.1,77.4,0.6,2.4,336.0,0.13,20.2,25.5,"08:00:08",1
"16/07/24","08:20",0.0,26.2,72.8,1008.1,357.8,0.2,1.3,354.4,0.13,21.0,25.5,"08:11:44",1
"16/07/24","08:30",0.0,26.9,67.5,1007.8,84.7,0.7,1.8,352.0,0.25,20.4,25.8,"08:23:04",1
"16/07/24","08:40",0.0,27.1,70.5,1007.6,4.1,0.5,1.8,347.2,0.21,21.3,25.5,"08:34:48",1
"16/07/24","08:50",0.0,28.2,64.8,1007.6,26.1,0.5,1.4,13.4,0.36,21.0,26.0,"08:48:32",1
"16/07/24","09:00",0.0,29.1,61.4,1008.1,73.7,0.7,1.9,5.5,0.44,21.0,26.4,"08:57:20",1
"16/07/24","09:10",0.0,28.2,64.7,1008.3,114.5,1.0,2.1,28.1,0.34,21.0,26.5,"09:00:40",1
"16/07/24","09:20",0.0,28.7,61.2,1008.6,76.0,1.0,1.8,349.0,0.39,20.5,26.8,"09:19:20",1
"16/07/24","09:30",0.0,29.0,61.4,1008.6,140.6,1.2,2.4,142.7,0.40,20.9,27.1,"09:23:44",1
"16/07/24","09:40",0.0,29.4,62.4,1009.0,146.0,1.0,1.8,174.9,0.35,21.5,27.2,"09:35:52",1
"16/07/24","09:50",0.0,29.4,62.3,1009.0,135.9,1.1,2.7,168.6,0.40,21.5,27.5,"09:46:40",1
"16/07/24","10:00",0.0,28.7,64.4,1009.0,169.4,1.5,2.8,188.3,0.27,21.4,27.5,"09:51:20",1
"16/07/24","10:10",0.0,28.8,60.3,1009.3,99.5,0.7,1.7,76.2,0.21,20.4,27.8,"10:02:16",1
"16/07/24","10:20",0.0,29.4,60.7,1008.8,116.5,0.6,1.3,108.4,0.29,21.1,28.0,"10:15:36",1
"16/07/24","10:30",0.0,29.3,58.1,1008.6,76.5,0.8,2.2,357.7,0.22,20.3,28.1,"10:20:48",1
"16/07/24","10:40",0.0,29.4,59.2,1008.8,84.9,0.7,1.8,10.5,0.26,20.6,28.0,"10:38:56",1
"16/07/24","10:50",0.0,30.3,56.5,1008.8,111.4,1.1,2.7,342.1,0.42,20.7,28.3,"10:40:56",1
"16/07/24","11:00",0.0,29.8,57.7,1009.0,133.3,1.0,2.6,138.5,0.24,20.6,28.4,"10:54:32",1
"16/07/24","11:10",0.0,30.8,57.9,1008.8,35.2,1.0,2.6,15.5,0.42,21.6,28.3,"11:01:44",1
"16/07/24","11:20",0.0,30.1,59.7,1008.6,89.6,0.8,1.9,120.2,0.27,21.4,28.6,"11:18:40",1
"16/07/24","11:30",0.0,30.8,55.6,1008.6,45.6,1.1,2.5,355.4,0.41,20.9,28.8,"11:29:04",1
"16/07/24","11:40",0.0,30.9,56.5,1008.8,119.5,1.2,2.2,117.8,0.46,21.3,28.9,"11:36:08",1
"16/07/24","11:50",0.0,31.0,53.9,1009.3,129.9,1.1,3.5,347.3,0.46,20.6,29.2,"11:49:52",1
"16/07/24","12:00",0.0,31.4,53.9,1009.0,49.5,0.7,1.8,343.3,0.36,21.0,29.4,"11:54:16",1
"16/07/24","12:10",0.0,31.0,57.6,1009.3,102.0,0.8,1.8,341.2,0.29,21.7,29.6,"12:01:28",1
"16/07/24","12:20",0.0,31.1,56.5,1008.8,73.2,0.7,2.0,57.8,0.27,21.5,29.6,"12:10:16",1
"16/07/24","12:30",0.0,31.6,52.4,1008.8,128.7,1.2,2.8,195.5,0.42,20.7,29.6,"12:28:24",1
"16/07/24","12:40",0.0,31.8,54.2,1008.6,168.5,1.6,3.7,191.7,0.50,21.4,30.0,"12:39:36",1
"16/07/24","12:50",0.0,31.4,54.2,1008.6,168.8,1.7,3.7,213.5,0.39,21.1,30.1,"12:41:20",1
"16/07/24","13:00",0.0,31.8,52.0,1008.8,194.3,0.8,2.2,217.2,0.39,20.8,30.1,"12:50:16",1
"16/07/24","13:10",0.0,32.0,52.7,1008.8,132.9,0.7,3.4,228.8,0.39,21.2,30.1,"13:09:44",1
"16/07/24","13:20",0.0,31.2,57.1,1008.6,229.6,1.0,3.5,224.2,0.23,21.7,30.2,"13:12:08",1
"16/07/24","13:30",0.0,31.2,55.4,1008.1,235.6,1.5,3.9,225.9,0.29,21.2,30.3,"13:26:16",1
"16/07/24","13:40",0.0,32.1,56.7,1008.3,229.8,0.8,4.2,232.8,0.37,22.5,30.3,"13:32:24",1
"16/07/24","13:50",0.0,32.2,55.2,1008.3,209.7,0.7,3.4,226.0,0.39,22.1,30.3,"13:48:24",1
"16/07/24","14:00",0.0,32.6,55.9,1008.1,206.6,1.0,2.6,218.0,0.36,22.7,30.3,"13:52:56",1
"16/07/24","14:10",0.0,32.5,53.9,1008.1,208.2,0.5,2.0,224.1,0.34,22.0,30.3,"14:08:08",1
"16/07/24","14:20",0.0,32.3,54.4,1008.6,221.2,0.5,2.5,226.6,0.34,22.0,30.7,"14:19:04",1
"16/07/24","14:30",0.0,31.5,56.7,1008.3,214.4,1.1,2.7,213.9,0.30,21.9,30.6,"14:25:04",1
"16/07/24","14:40",0.0,32.1,56.7,1008.1,191.6,0.8,3.5,220.3,0.33,22.5,30.7,"14:33:52",1
"16/07/24","14:50",0.0,31.7,54.3,1008.1,214.4,1.0,2.6,216.8,0.28,21.4,30.8,"14:44:32",1
"16/07/24","15:00",0.0,32.2,52.7,1007.8,159.2,0.6,2.4,226.4,0.30,21.4,30.8,"14:50:08",1
"16/07/24","15:10",0.0,31.7,56.0,1007.8,184.4,0.8,3.3,226.1,0.23,21.9,30.9,"15:05:12",1
"16/07/24","15:20",0.0,31.3,55.9,1007.8,218.8,1.0,3.3,204.1,0.20,21.5,30.6,"15:18:00",1
"16/07/24","15:30",0.0,31.1,57.3,1007.1,219.8,1.5,3.9,213.2,0.18,21.7,30.8,"15:24:24",1
"16/07/24","15:40",0.0,31.1,57.4,1007.4,215.5,1.5,2.9,221.3,0.16,21.7,30.6,"15:37:28",1
"16/07/24","15:50",0.0,31.5,56.5,1006.9,269.4,0.3,2.6,242.2,0.19,21.8,30.5,"15:42:16",1
"16/07/24","16:00",0.0,31.7,58.2,1006.7,172.5,0.5,2.6,220.9,0.16,22.5,30.4,"15:50:08",1
"16/07/24","16:10",0.0,31.1,59.3,1006.7,211.4,1.0,3.7,229.5,0.14,22.3,30.3,"16:02:32",1
"16/07/24","16:20",0.0,30.9,58.8,1006.7,232.5,0.6,2.9,224.0,0.13,21.9,30.4,"16:17:28",1
"16/07/24","16:30",0.0,30.5,58.8,1006.2,237.7,1.1,3.5,223.5,0.12,21.6,30.4,"16:24:16",1
"16/07/24","16:40",0.0,30.6,60.1,1006.0,222.8,1.2,4.0,227.1,0.12,22.0,30.3,"16:31:44",1
"16/07/24","16:50",0.0,30.6,59.3,1006.0,238.3,0.8,2.8,224.3,0.11,21.8,30.1,"16:43:36",1
"16/07/24","17:00",0.0,30.6,58.4,1006.2,248.1,0.8,4.3,226.1,0.08,21.5,30.2,"16:52:00",1
"16/07/24","17:10",0.0,30.4,58.6,1006.2,232.5,0.7,2.6,227.3,0.07,21.4,29.8,"17:07:12",1
"16/07/24","17:20",0.0,30.3,59.7,1006.0,249.0,0.5,1.8,230.5,0.05,21.6,29.9,"17:14:08",1
"16/07/24","17:30",0.0,30.1,60.5,1006.0,228.5,0.7,2.7,244.8,0.06,21.7,29.9,"17:20:08",1
"16/07/24","17:40",0.0,30.1,60.2,1006.0,228.1,1.2,2.7,219.9,0.05,21.6,29.9,"17:35:04",1
"16/07/24","17:50",0.0,29.9,61.9,1006.0,230.7,1.0,3.2,230.6,0.04,21.8,29.8,"17:42:24",1
"16/07/24","18:00",0.0,29.6,61.9,1005.7,267.1,0.5,1.4,237.5,0.02,21.6,29.7,"17:51:20",1
"16/07/24","18:10",0.0,29.4,62.1,1005.5,240.5,0.6,2.5,225.8,0.01,21.4,29.6,"18:09:24",1
"16/07/24","18:20",0.0,29.2,63.0,1005.0,225.7,0.5,1.4,230.3,0.01,21.5,29.5,"18:18:56",1
"16/07/24","18:30",0.0,28.9,64.2,1005.2,248.5,0.2,1.3,218.7,0.00,21.5,29.2,"18:20:08",1
"16/07/24","18:40",0.0,28.7,65.7,1005.0,296.1,0.1,0.6,281.9,0.00,21.7,29.1,"18:36:32",1
"16/07/24","18:50",0.0,28.4,65.7,1006.0,299.8,0.3,1.3,35.2,0.00,21.4,29.1,"18:46:00",1
"16/07/24","19:00",0.0,28.1,66.7,1005.7,310.2,0.3,1.3,59.7,0.00,21.4,28.7,"18:56:00",1
"16/07/24","19:10",0.0,27.8,68.2,1006.0,324.6,0.7,1.9,354.8,0.00,21.4,28.9,"19:07:20",1
"16/07/24","19:20",0.0,27.4,69.5,1006.0,330.5,0.6,1.7,8.0,0.00,21.4,28.7,"19:15:28",1
"16/07/24","19:30",0.0,27.2,70.3,1006.2,315.6,0.6,1.6,348.9,0.00,21.4,28.7,"19:25:20",1
"16/07/24","19:40",0.0,27.0,71.3,1006.4,316.0,0.5,1.3,352.1,0.00,21.4,28.4,"19:31:36",1
"16/07/24","19:50",0.0,26.8,72.4,1006.4,319.8,0.6,1.3,319.3,0.00,21.5,28.2,"19:40:32",1
"16/07/24","20:00",0.0,26.5,73.3,1006.4,347.9,0.8,1.9,356.7,0.00,21.4,28.1,"19:58:00",1
"16/07/24","20:10",0.0,26.5,74.0,1006.7,339.9,1.0,1.7,358.1,0.00,21.5,28.1,"20:01:28",1
"16/07/24","20:20",0.0,26.2,74.9,1006.9,320.3,0.6,1.7,348.8,0.00,21.4,28.2,"20:18:48",1
"16/07/24","20:30",0.0,26.0,75.7,1006.7,330.5,1.0,1.7,349.5,0.00,21.4,27.9,"20:27:12",1
"16/07/24","20:40",0.0,25.9,76.0,1007.1,325.9,0.8,1.3,329.2,0.00,21.4,27.6,"20:32:08",1
"16/07/24","20:50",0.0,25.8,76.9,1007.1,323.4,0.5,1.2,327.0,0.00,21.5,27.6,"20:40:56",1
"16/07/24","21:00",0.0,25.6,77.4,1007.4,340.0,0.8,1.9,344.9,0.00,21.4,27.6,"20:51:20",1
"16/07/24","21:10",0.0,25.5,78.2,1007.1,354.7,0.8,1.6,359.1,0.00,21.5,27.5,"21:03:52",1
"16/07/24","21:20",0.0,25.3,79.1,1007.6,346.0,0.8,1.6,359.7,0.00,21.5,27.3,"21:10:56",1
"16/07/24","21:30",0.0,25.0,80.5,1007.6,316.2,0.7,1.4,350.8,0.00,21.5,27.3,"21:21:28",1
"16/07/24","21:40",0.0,24.8,81.8,1008.1,332.5,0.8,1.6,353.9,0.00,21.5,27.2,"21:36:32",1
"16/07/24","21:50",0.0,24.7,82.2,1007.6,330.8,1.0,1.8,355.8,0.00,21.5,27.1,"21:45:12",1
"16/07/24","22:00",0.0,24.8,82.1,1007.6,346.2,0.8,1.6,340.5,0.00,21.6,27.1,"21:59:20",1
"16/07/24","22:10",0.0,24.9,82.0,1007.8,326.8,0.8,1.7,346.4,0.00,21.7,27.1,"22:05:20",1
"16/07/24","22:20",0.0,24.9,81.6,1007.8,316.3,0.6,1.4,316.0,0.00,21.6,27.0,"22:19:20",1
"16/07/24","22:30",0.0,25.0,81.0,1008.1,330.3,0.8,1.9,357.7,0.00,21.6,27.0,"22:28:00",1
"16/07/24","22:40",0.0,25.0,80.7,1008.1,327.3,0.8,1.4,331.8,0.00,21.5,26.9,"22:39:44",1
"16/07/24","22:50",0.0,25.1,80.4,1008.1,344.5,1.0,1.8,341.6,0.00,21.5,26.8,"22:47:44",1
"16/07/24","23:00",0.0,25.0,80.3,1007.8,328.2,0.8,1.7,338.2,0.00,21.4,26.8,"22:51:36",1
"16/07/24","23:10",0.0,24.8,81.0,1007.8,310.4,0.6,1.1,314.0,0.00,21.4,27.0,"23:08:32",1
"16/07/24","23:20",0.0,24.7,81.9,1007.8,322.4,0.6,1.1,341.2,0.00,21.4,26.7,"23:16:48",1
"16/07/24","23:30",0.0,24.5,82.5,1007.8,300.2,0.5,0.9,312.8,0.00,21.4,26.7,"23:21:28",1
"16/07/24","23:40",0.0,24.3,83.4,1007.8,316.3,0.7,1.3,333.2,0.00,21.3,26.7,"23:37:28",1
"16/07/24","23:50",0.0,24.2,83.8,1007.8,326.0,0.7,1.2,324.5,0.00,21.3,26.5,"23:45:20",1
"16/07/24","24:00",0.0,24.1,84.3,1007.8,322.7,0.8,1.6,345.6,0.00,21.3,26.5,"23:52:32",1
